sat.trackr.live / text

‹ back to catalog

STARLINK-5200

NORAD 54103 · 2022-136BE

PAYLOAD ACTIVE UNKNOWN

§ Identity

Operator
Country
US
Launch date
2022-10-20
Launch site
AFETR
Launch vehicle
Mass (kg)
RCS (m²)

Purposes: comms

External: N2YO · Heavens-Above · Gunter

§ Orbital elements

Epoch: 2026-05-24T20:06:29.657664Z

Period
95.44 min
Inclination
53.2140°
Eccentricity
0.0001418
Mean motion
15.08797959 rev/d
Perigee alt
538.9 km
Apogee alt
540.9 km
Semi-major
6,918.0 km
B*
5.7903e-4
RAAN
332.0631°
Arg perigee
82.7920°
Mean anomaly
277.3233°
Rev number
19,876

§ Raw data

STARLINK-52001 54103U 22136BE  26144.83784326  .00008929  00000+0  57903-3 0  99992 54103  53.2140 332.0631 0001418  82.7920 277.3233 15.08797959198768

JSON: /api/v1/satellites/54103 · /tle

For live sub-satellite position, see the globe view (requires WebGL).

§ Visibility from observer

Set your observer location to see the next 7 days of passes ≥ 10°. The values pass through the URL so the page stays shareable.

No JS? Fill the form by hand. The geolocation button needs JavaScript.